LHA9SJ EDDH-EKBI

Flight info

Callsign LHA9SJ
Flight time 0h 27m
Altitude 22000
Route SOKWO T814 EXNEL/N0398F230 M105 AMRAK DCT LOKSA
Aircraft A320/M-SDE1E2FGIJ1RWYZE3/LB1

Departure

Time 2026-05-05 18:15
Airport Hamburg Helmut Schmidt Airport (EDDH)

Arrival

Time 2026-05-05 18:42
Airport Billund Airport (EKBI)
Time Latitude Longitude Altitude Speed Heading
2026-05-05 17:46 53.62810 10.00250 46 ft 0 kts 63°
2026-05-05 18:05 53.62807 10.00237 48 ft 4 kts 62°
2026-05-05 18:06 53.62793 10.00198 46 ft 4 kts 62°
2026-05-05 18:06 53.62788 10.00178 45 ft 4 kts 58°
2026-05-05 18:06 53.62762 10.00150 47 ft 4 kts 352°
2026-05-05 18:06 53.62745 10.00157 43 ft 0 kts 333°
2026-05-05 18:10 53.62746 10.00157 48 ft 1 kts 333°
2026-05-05 18:10 53.62763 10.00142 48 ft 5 kts 332°
2026-05-05 18:10 53.62815 10.00096 48 ft 9 kts 333°
2026-05-05 18:11 53.62852 10.00031 48 ft 7 kts 287°
2026-05-05 18:11 53.62847 9.99968 48 ft 3 kts 245°
2026-05-05 18:11 53.62829 9.99911 46 ft 8 kts 244°
2026-05-05 18:11 53.62815 9.99815 45 ft 9 kts 283°
2026-05-05 18:12 53.62841 9.99769 45 ft 0 kts 331°
2026-05-05 18:14 53.62858 9.99753 45 ft 15 kts 331°
2026-05-05 18:15 53.63141 9.99508 44 ft 83 kts 333°
2026-05-05 18:15 53.63858 9.98890 50 ft 145 kts 333°
2026-05-05 18:15 53.64864 9.98010 403 ft 168 kts 335°
2026-05-05 18:15 53.65910 9.97117 1212 ft 171 kts 336°
2026-05-05 18:16 53.66969 9.96214 2049 ft 170 kts 338°
2026-05-05 18:16 53.68034 9.95374 2819 ft 169 kts 341°
2026-05-05 18:16 53.69175 9.94779 3428 ft 177 kts 355°
2026-05-05 18:16 53.70465 9.94712 3884 ft 194 kts
2026-05-05 18:17 53.71865 9.94748 4402 ft 206 kts
2026-05-05 18:17 53.73320 9.94885 4979 ft 215 kts 11°
2026-05-05 18:17 53.74713 9.95894 5411 ft 234 kts 33°
2026-05-05 18:17 53.76133 9.97533 5832 ft 261 kts 34°
2026-05-05 18:18 53.77674 9.99382 6484 ft 277 kts 35°
2026-05-05 18:18 53.79276 10.01225 7436 ft 281 kts 32°
2026-05-05 18:18 53.80942 10.03018 8347 ft 286 kts 30°
2026-05-05 18:18 53.82649 10.04820 9273 ft 293 kts 30°
2026-05-05 18:19 53.84397 10.06671 9924 ft 299 kts 30°
2026-05-05 18:19 53.86243 10.08545 10346 ft 320 kts 22°
2026-05-05 18:19 53.88445 10.09497 10670 ft 337 kts 359°
2026-05-05 18:19 53.90800 10.09033 11269 ft 345 kts 347°
2026-05-05 18:20 53.93177 10.08317 12067 ft 350 kts 347°
2026-05-05 18:20 53.95591 10.07583 12878 ft 355 kts 347°
2026-05-05 18:20 53.98034 10.06839 13669 ft 359 kts 347°
2026-05-05 18:20 54.00513 10.06089 14375 ft 364 kts 347°
2026-05-05 18:21 54.03022 10.05337 15088 ft 368 kts 347°
2026-05-05 18:21 54.05556 10.04583 15818 ft 371 kts 347°
2026-05-05 18:21 54.08111 10.03819 16542 ft 375 kts 346°
2026-05-05 18:21 54.10691 10.03043 17269 ft 378 kts 346°
2026-05-05 18:22 54.13291 10.02257 17970 ft 381 kts 346°
2026-05-05 18:22 54.15921 10.01459 18614 ft 385 kts 345°
2026-05-05 18:22 54.18566 10.00654 19194 ft 389 kts 345°
2026-05-05 18:22 54.21245 9.99840 19772 ft 393 kts 345°
2026-05-05 18:23 54.23944 9.99018 20343 ft 396 kts 345°
2026-05-05 18:23 54.26639 9.98196 20900 ft 400 kts 345°
2026-05-05 18:23 54.29390 9.97358 21457 ft 404 kts 345°
2026-05-05 18:23 54.32167 9.96514 21850 ft 407 kts 345°
2026-05-05 18:24 54.34967 9.95662 21960 ft 412 kts 345°
2026-05-05 18:24 54.37803 9.94795 21944 ft 415 kts 345°
2026-05-05 18:24 54.40648 9.93924 21945 ft 416 kts 345°
2026-05-05 18:24 54.43497 9.93053 21945 ft 416 kts 345°
2026-05-05 18:25 54.46345 9.92181 21942 ft 416 kts 345°
2026-05-05 18:25 54.48271 9.91592 21941 ft 416 kts 345°
2026-05-05 18:25 54.52046 9.90436 21938 ft 416 kts 345°
2026-05-05 18:25 54.54894 9.89558 21937 ft 416 kts 344°
2026-05-05 18:26 54.57743 9.88678 21924 ft 416 kts 344°
2026-05-05 18:26 54.60595 9.87796 21948 ft 416 kts 344°
2026-05-05 18:26 54.63447 9.86917 21944 ft 416 kts 344°
2026-05-05 18:26 54.66291 9.86040 21942 ft 416 kts 344°
2026-05-05 18:27 54.69139 9.85155 21936 ft 415 kts 344°
2026-05-05 18:27 54.71982 9.84267 21932 ft 415 kts 344°
2026-05-05 18:27 54.74825 9.83376 21900 ft 414 kts 344°
2026-05-05 18:27 54.77629 9.82502 21640 ft 407 kts 344°
2026-05-05 18:28 54.83163 9.80779 21061 ft 398 kts 344°
2026-05-05 18:28 54.85873 9.79939 20567 ft 393 kts 344°
2026-05-05 18:28 54.88544 9.79108 20079 ft 388 kts 344°
2026-05-05 18:29 54.91155 9.78291 19573 ft 384 kts 344°
2026-05-05 18:29 54.93772 9.77467 19081 ft 380 kts 344°
2026-05-05 18:29 54.96366 9.76650 18588 ft 377 kts 344°
2026-05-05 18:29 54.98941 9.75837 18049 ft 375 kts 344°
2026-05-05 18:30 55.01500 9.75026 17520 ft 372 kts 344°
2026-05-05 18:30 55.04031 9.74222 17003 ft 368 kts 344°
2026-05-05 18:30 55.06544 9.73424 16488 ft 366 kts 345°
2026-05-05 18:30 55.09035 9.72632 15966 ft 364 kts 345°
2026-05-05 18:31 55.11521 9.71843 15435 ft 362 kts 345°
2026-05-05 18:31 55.13994 9.71053 14925 ft 361 kts 345°
2026-05-05 18:31 55.16457 9.70266 14380 ft 360 kts 345°
2026-05-05 18:31 55.18919 9.69483 13839 ft 359 kts 345°
2026-05-05 18:32 55.21371 9.68702 13265 ft 357 kts 346°
2026-05-05 18:32 55.23802 9.67931 12714 ft 354 kts 346°
2026-05-05 18:32 55.26215 9.67166 12173 ft 351 kts 346°
2026-05-05 18:32 55.28607 9.66404 11627 ft 348 kts 346°
2026-05-05 18:33 55.30980 9.65646 11075 ft 345 kts 346°
2026-05-05 18:33 55.33331 9.64894 10567 ft 342 kts 346°
2026-05-05 18:33 55.35621 9.64162 10429 ft 327 kts 346°
2026-05-05 18:33 55.37811 9.63459 10310 ft 313 kts 346°
2026-05-05 18:34 55.39913 9.62781 10180 ft 301 kts 346°
2026-05-05 18:34 55.41937 9.62129 10055 ft 291 kts 346°
2026-05-05 18:34 55.43907 9.61498 9833 ft 285 kts 346°
2026-05-05 18:34 55.45851 9.60871 9584 ft 285 kts 346°
2026-05-05 18:35 55.47812 9.60231 9119 ft 285 kts 346°
2026-05-05 18:35 55.49752 9.59598 8752 ft 282 kts 346°
2026-05-05 18:35 55.51681 9.58968 8319 ft 281 kts 347°
2026-05-05 18:35 55.53602 9.58341 7905 ft 280 kts 347°
2026-05-05 18:36 55.55484 9.57728 7506 ft 278 kts 348°
2026-05-05 18:36 55.57380 9.57110 7102 ft 276 kts 348°
2026-05-05 18:36 55.59260 9.56495 6709 ft 274 kts 348°
2026-05-05 18:36 55.61123 9.55887 6326 ft 271 kts 349°
2026-05-05 18:37 55.62982 9.55280 5732 ft 275 kts 349°
2026-05-05 18:37 55.64897 9.54655 4963 ft 284 kts 349°
2026-05-05 18:37 55.66851 9.54020 4495 ft 282 kts 351°
2026-05-05 18:37 55.68731 9.53404 4336 ft 268 kts 351°
2026-05-05 18:38 55.70518 9.52816 4216 ft 254 kts 351°
2026-05-05 18:38 55.72208 9.52262 4107 ft 240 kts 351°
2026-05-05 18:38 55.73786 9.51584 4012 ft 229 kts 336°
2026-05-05 18:38 55.74894 9.49650 3801 ft 229 kts 295°
2026-05-05 18:39 55.75071 9.46869 3524 ft 231 kts 264°
2026-05-05 18:39 55.74904 9.44034 3222 ft 231 kts 266°
2026-05-05 18:39 55.74799 9.41198 2898 ft 230 kts 269°
2026-05-05 18:39 55.74717 9.38387 2593 ft 223 kts 269°
2026-05-05 18:40 55.74641 9.35708 2306 ft 212 kts 270°
2026-05-05 18:40 55.74567 9.33161 2038 ft 200 kts 269°
2026-05-05 18:40 55.74497 9.30789 1771 ft 185 kts 270°
2026-05-05 18:40 55.74433 9.28636 1538 ft 164 kts 271°
2026-05-05 18:41 55.74376 9.26710 1258 ft 150 kts 270°
2026-05-05 18:41 55.74330 9.24908 1006 ft 143 kts 271°
2026-05-05 18:41 55.74294 9.23205 831 ft 135 kts 273°
2026-05-05 18:41 55.74261 9.21552 666 ft 134 kts 270°
2026-05-05 18:42 55.74193 9.19916 519 ft 132 kts 270°
2026-05-05 18:42 55.74132 9.18300 331 ft 131 kts 270°
2026-05-05 18:42 55.74084 9.16754 242 ft 110 kts 266°
2026-05-05 18:42 55.74060 9.15892 231 ft 46 kts 267°
2026-05-05 18:43 55.74043 9.15371 230 ft 38 kts 266°
2026-05-05 18:43 55.74028 9.14942 230 ft 35 kts 268°
2026-05-05 18:43 55.74019 9.14562 226 ft 17 kts 268°
2026-05-05 18:43 55.74086 9.14494 225 ft 14 kts 358°
2026-05-05 18:44 55.74190 9.14487 225 ft 16 kts 358°
2026-05-05 18:44 55.74312 9.14474 225 ft 19 kts 356°
2026-05-05 18:44 55.74436 9.14485 226 ft 14 kts 12°
2026-05-05 18:44 55.74505 9.14482 225 ft 11 kts 356°
2026-05-05 18:45 55.74524 9.14480 225 ft 0 kts 356°